EW3786 Weather Reports


Display with metric or nautical units.
time (UTC)temp
F
wind
direction
speed
MPH
gust
MPH
rain 1hr
in
rain 24hr
in
rain mn
in
humidity
%
barometer
mb
20260507122824 44 326 3.0 10.0 0.00 0.04 0.00 55 1014.0
20260507122335 44 333 4.0 9.0 0.00 0.04 0.00 55 1014.0
20260507121829 45 330 4.0 7.0 0.00 0.04 0.00 53 1014.0
20260507121320 45 328 3.0 6.0 0.00 0.04 0.00 52 1013.9
20260507120833 46 349 4.0 6.0 0.00 0.04 0.00 51 1013.9
20260507120326 45 324 2.0 7.0 0.00 0.04 0.00 53 1013.9
20260507115821 45 323 4.0 7.0 0.00 0.04 0.00 52 1013.8
20260507115334 45 333 2.0 10.0 0.00 0.04 0.00 52 1013.9
20260507114822 45 315 4.0 10.0 0.00 0.04 0.00 51 1013.8
20260507114336 45 264 4.0 10.0 0.00 0.04 0.00 52 1013.7
20260507113827 45 326 5.0 9.0 0.00 0.04 0.00 51 1013.6
20260507113321 45 342 2.0 6.0 0.00 0.04 0.00 48 1013.6
20260507112834 45 343 3.0 6.0 0.00 0.04 0.00 51 1013.6
20260507112327 44 309 3.0 7.0 0.00 0.04 0.00 58 1013.5
20260507111843 43 8 2.0 8.0 0.00 0.04 0.00 54 1013.5
20260507111336 43 325 3.0 9.0 0.00 0.04 0.00 56 1013.5
20260507110826 42 360 3.0 10.0 0.00 0.04 0.00 56 1013.4
20260507110320 42 303 4.0 10.0 0.00 0.04 0.00 56 1013.4
20260507105830 42 314 3.0 10.0 0.00 0.04 0.00 52 1013.3
20260507105344 43 319 2.0 8.0 0.00 0.04 0.00 54 1013.4
20260507104835 42 341 3.0 5.0 0.00 0.04 0.00 56 1013.3
20260507104328 41 295 2.0 5.0 0.00 0.04 0.00 56 1013.4
20260507103817 41 297 2.0 6.0 0.00 0.04 0.00 56 1013.3
20260507103334 42 316 3.0 10.0 0.00 0.04 0.00 55 1013.2
20260507102825 42 291 5.0 10.0 0.00 0.04 0.00 53 1013.2
20260507102356 42 341 2.0 5.0 0.00 0.04 0.00 53 1013.1
20260507101828 42 310 2.0 9.0 0.00 0.04 0.00 53 1013.1
20260507101341 41 330 5.0 9.0 0.00 0.04 0.00 56 1013.1
20260507100831 41 299 3.0 5.0 0.00 0.04 0.00 54 1013.0
20260507100322 41 308 1.0 5.0 0.00 0.04 0.00 54 1013.0
20260507095834 41 277 2.0 6.0 0.00 0.04 0.00 52 1012.9
20260507095327 40 323 2.0 6.0 0.00 0.04 0.00 56 1013.0
20260507094821 40 254 1.0 6.0 0.00 0.04 0.00 57 1012.9
20260507094353 40 258 3.0 6.0 0.00 0.04 0.00 54 1013.0
20260507093837 41 305 1.0 9.0 0.00 0.04 0.00 52 1012.9
20260507093329 41 322 3.0 9.0 0.00 0.04 0.00 55 1012.9
20260507092818 41 313 0.0 4.0 0.00 0.12 0.00 53 1012.8
20260507092330 41 323 2.0 9.0 0.00 0.12 0.00 53 1012.9
20260507091838 42 341 5.0 9.0 0.00 0.12 0.00 55 1012.8
20260507091329 42 335 2.0 9.0 0.00 0.12 0.00 55 1012.8
20260507090820 42 359 3.0 9.0 0.00 0.12 0.00 54 1012.7
20260507090333 42 335 2.0 7.0 0.00 0.12 0.00 54 1012.7
20260507085825 41 338 4.0 7.0 0.00 0.12 0.00 56 1012.6
20260507085358 41 357 1.0 5.0 0.00 0.12 0.00 55 1012.6
20260507084826 41 349 0.0 3.0 0.00 0.12 0.00 54 1012.6
20260507084318 41 348 1.0 3.0 0.00 0.12 0.00 54 1012.5
20260507083830 42 347 1.0 5.0 0.00 0.12 0.00 55 1012.5
20260507083322 41 341 4.0 5.0 0.00 0.12 0.00 60 1012.5
20260507082835 40 343 0.0 5.0 0.00 0.20 0.00 59 1012.5
20260507082326 39 344 1.0 8.0 0.00 0.20 0.00 59 1012.4
20260507081838 39 346 3.0 8.0 0.00 0.20 0.00 60 1012.4
20260507081328 39 329 2.0 6.0 0.00 0.20 0.00 60 1012.4
20260507080824 39 310 2.0 5.0 0.00 0.20 0.00 62 1012.4
20260507080316 39 286 2.0 5.0 0.00 0.20 0.00 63 1012.3
20260507075850 39 328 2.0 5.0 0.00 0.20 0.00 66 1012.3
20260507075320 39 316 0.0 5.0 0.00 0.20 0.00 65 1012.3
20260507074854 39 315 2.0 9.0 0.00 0.20 0.00 66 1012.3
20260507074323 39 326 2.0 9.0 0.00 0.20 0.00 67 1012.3
20260507073836 39 332 2.0 6.0 0.00 0.20 0.00 69 1012.2
20260507073328 38 330 3.0 6.0 0.00 0.20 0.00 69 1012.2
20260507072835 38 328 1.0 4.0 0.00 0.31 0.00 68 1012.2
20260507072330 38 328 2.0 4.0 0.00 0.31 0.00 69 1012.2
20260507071821 37 4 0.0 6.0 0.00 0.31 0.00 72 1012.0
20260507071332 37 3 2.0 6.0 0.00 0.31 0.00 72 1012.0
20260507070825 37 347 0.0 3.0 0.00 0.31 0.00 71 1011.9
20260507070318 36 347 1.0 3.0 0.00 0.31 0.00 73 1011.9
20260507065829 36 345 1.0 3.0 0.00 0.31 0.00 74 1011.9
20260507065341 36 43 1.0 3.0 0.00 0.31 0.00 75 1012.0
20260507064834 36 43 2.0 3.0 0.00 0.31 0.00 74 1011.8
20260507064326 36 16 0.0 4.0 0.00 0.31 0.00 75 1011.8
20260507063818 36 16 2.0 4.0 0.00 0.31 0.00 76 1011.8
20260507063332 35 59 0.0 4.0 0.00 0.31 0.00 77 1011.7
20260507062820 35 79 1.0 3.0 0.00 0.35 0.00 77 1011.7
20260507062333 35 82 0.0 1.0 0.00 0.35 0.00 77 1011.7
20260507061845 35 82 0.0 3.0 0.00 0.35 0.00 79 1011.6
20260507061317 34 82 1.0 3.0 0.00 0.35 0.00 80 1011.6
20260507060831 34 85 0.0 2.0 0.00 0.35 0.00 80 1011.6
20260507060345 34 86 0.0 0.0 0.00 0.35 0.00 81 1011.5
20260507055832 34 86 0.0 0.0 0.00 0.35 0.00 83 1011.4
20260507055329 34 86 0.0 2.0 0.00 0.35 0.00 83 1011.4
20260507054840 33 86 0.0 2.0 0.00 0.35 0.00 83 1011.4
20260507054333 33 87 0.0 1.0 0.00 0.35 0.00 83 1011.5
20260507053824 33 87 0.0 0.0 0.00 0.35 0.00 83 1011.4
20260507053317 33 87 0.0 1.0 0.00 0.35 0.00 85 1011.3
20260507052829 33 87 0.0 1.0 0.00 0.35 0.00 85 1011.3
20260507052320 33 87 0.0 0.0 0.00 0.35 0.00 85 1011.3
20260507051834 32 87 0.0 1.0 0.00 0.35 0.00 85 1011.2
20260507051345 32 87 0.0 1.0 0.00 0.35 0.00 85 1011.1
20260507050818 32 87 0.0 0.0 0.00 0.35 0.00 86 1011.1
20260507050333 32 87 0.0 0.0 0.00 0.35 0.00 86 1011.1
20260507045823 32 87 0.0 0.0 0.00 0.35 0.00 86 1011.1
20260507045337 32 87 0.0 0.0 0.00 0.35 0.00 86 1011.1
20260507044830 31 87 0.0 0.0 0.00 0.35 0.00 87 1011.1
20260507044342 31 87 0.0 0.0 0.00 0.35 0.00 88 1011.0
20260507043833 31 87 0.0 0.0 0.00 0.35 0.00 88 1011.0
20260507043324 31 86 0.0 0.0 0.00 0.35 0.00 88 1011.0
20260507042857 31 87 0.0 1.0 0.00 0.35 0.00 88 1011.0
20260507042326 31 87 0.0 1.0 0.00 0.35 0.00 88 1010.9
20260507041857 31 87 0.0 1.0 0.00 0.35 0.00 89 1010.9
20260507041348 31 87 0.0 0.0 0.00 0.35 0.00 89 1010.9
20260507040824 31 87 0.0 0.0 0.00 0.35 0.00 89 1010.9
20260507040336 30 87 0.0 0.0 0.00 0.35 0.00 90 1010.9
20260507035824 30 87 0.0 0.0 0.00 0.35 0.00 90 1010.9
20260507035335 30 86 0.0 0.0 0.00 0.35 0.00 91 1010.8
20260507034827 30 87 0.0 0.0 0.00 0.35 0.00 90 1010.8
20260507034335 30 86 0.0 0.0 0.00 0.35 0.00 90 1010.8
20260507033827 30 87 0.0 0.0 0.00 0.35 0.00 90 1010.8
20260507033342 30 86 0.0 1.0 0.00 0.35 0.00 89 1010.8
20260507032833 30 86 0.0 1.0 0.00 0.35 0.00 89 1010.7
20260507032327 30 86 0.0 0.0 0.00 0.35 0.00 89 1010.7
20260507031818 30 86 0.0 0.0 0.00 0.35 0.00 89 1010.7
20260507031350 30 86 0.0 0.0 0.00 0.35 0.00 88 1010.7
20260507030837 30 86 0.0 0.0 0.00 0.35 0.00 88 1010.6
20260507030331 30 86 0.0 2.0 0.00 0.35 0.00 88 1010.6
20260507025822 30 86 1.0 2.0 0.00 0.35 0.00 87 1010.6
20260507025333 30 86 0.0 0.0 0.00 0.35 0.00 87 1010.6
20260507024826 30 86 0.0 2.0 0.00 0.35 0.00 87 1010.6
20260507024337 30 86 0.0 3.0 0.00 0.35 0.00 87 1010.6
20260507023828 30 86 1.0 3.0 0.00 0.35 0.00 88 1010.6
20260507023324 29 86 0.0 3.0 0.00 0.35 0.00 88 1010.6
20260507022836 29 86 1.0 3.0 0.00 0.35 0.00 87 1010.6
20260507022328 29 86 0.0 2.0 0.00 0.35 0.00 88 1010.6
20260507021819 29 86 0.0 1.0 0.00 0.35 0.00 88 1010.6
20260507021329 29 86 0.0 1.0 0.00 0.35 0.00 89 1010.6
20260507020840 29 86 0.0 0.0 0.00 0.35 0.00 89 1010.5
20260507020333 29 86 0.0 0.0 0.00 0.35 0.00 88 1010.4
20260507015825 29 86 0.0 2.0 0.00 0.35 0.00 87 1010.4
20260507015336 29 86 0.0 2.0 0.00 0.35 0.00 87 1010.4
20260507014833 29 86 0.0 1.0 0.00 0.35 0.00 87 1010.4
20260507014346 29 86 0.0 1.0 0.00 0.35 0.00 87 1010.3
20260507013816 29 86 0.0 2.0 0.00 0.35 0.00 86 1010.3
20260507013329 29 86 0.0 6.0 0.00 0.35 0.00 86 1010.2
20260507012822 29 86 3.0 6.0 0.00 0.35 0.00 85 1010.2
20260507012336 29 85 3.0 6.0 0.00 0.35 0.00 85 1010.2
20260507011825 29 60 2.0 4.0 0.00 0.35 0.00 86 1010.3
20260507011338 29 58 1.0 4.0 0.00 0.35 0.00 85 1010.2
20260507010830 29 58 2.0 4.0 0.00 0.35 0.00 85 1010.2
20260507010328 29 58 1.0 4.0 0.00 0.35 0.00 85 1010.2
20260507005820 29 57 0.0 1.0 0.00 0.35 0.00 86 1010.2
20260507005334 29 57 0.0 3.0 0.00 0.35 0.00 86 1010.1
20260507004817 29 57 1.0 4.0 0.00 0.35 0.00 87 1010.1
20260507004331 29 58 1.0 4.0 0.00 0.35 0.00 87 1010.0
20260507003818 30 57 2.0 4.0 0.00 0.35 0.00 87 1010.0
20260507003330 30 54 0.0 4.0 0.00 0.35 0.00 87 1009.9
20260507002820 30 54 3.0 6.0 0.00 0.35 0.00 87 1010.0
20260507002332 30 51 3.0 4.0 0.00 0.35 0.00 87 1010.0
20260507001828 30 47 3.0 4.0 0.00 0.35 0.00 88 1010.0
20260507001321 30 39 3.0 4.0 0.00 0.35 0.00 88 1010.0
20260507000830 30 34 2.0 4.0 0.00 0.35 0.00 88 1010.0
20260507000322 30 31 2.0 4.0 0.00 0.35 0.00 88 1010.0
20260506235832 30 30 1.0 3.0 0.00 0.35 0.00 87 1010.0
20260506235324 30 29 1.0 3.0 0.00 0.35 0.00 87 1010.0
20260506234856 31 29 0.0 1.0 0.00 0.35 0.00 87 1009.9
20260506234327 31 29 0.0 1.0 0.00 0.35 0.00 87 1009.8
20260506233856 31 29 0.0 0.0 0.00 0.35 0.00 86 1009.9
20260506233330 31 29 0.0 0.0 0.00 0.35 0.00 87 1009.8
20260506232822 31 29 0.0 0.0 0.00 0.35 0.00 87 1009.8
20260506232335 31 29 0.0 0.0 0.00 0.35 0.00 87 1009.8
20260506231846 31 29 0.0 0.0 0.00 0.35 0.00 87 1009.7
20260506231317 31 29 0.0 0.0 0.00 0.35 0.00 86 1009.8
20260506230849 31 29 0.0 0.0 0.00 0.35 0.00 86 1009.7
20260506230323 31 29 0.0 3.0 0.00 0.35 0.00 87 1009.7
20260506225833 31 29 0.0 6.0 0.00 0.35 0.00 87 1009.7
20260506225327 32 29 2.0 6.0 0.00 0.35 0.00 87 1009.7
20260506224823 32 316 0.0 0.0 0.00 0.35 0.00 87 1009.6
20260506224335 32 316 0.0 0.0 0.00 0.35 0.00 87 1009.7
20260506223828 32 316 0.0 2.0 0.00 0.35 0.00 87 1009.7
20260506223318 32 316 0.0 2.0 0.00 0.35 0.00 87 1009.6
20260506222829 32 316 1.0 3.0 0.00 0.35 0.07 87 1009.6
20260506222321 32 315 0.0 3.0 0.00 0.35 0.07 87 1009.6
20260506221831 32 315 1.0 2.0 0.00 0.35 0.07 87 1009.5
20260506221345 32 315 0.0 3.0 0.00 0.35 0.07 87 1009.5
20260506220834 32 315 0.0 4.0 0.00 0.35 0.07 87 1009.5
20260506220333 32 315 1.0 4.0 0.00 0.35 0.07 87 1009.4
20260506215842 32 313 1.0 2.0 0.00 0.35 0.07 88 1009.4
20260506215334 32 313 0.0 2.0 0.00 0.35 0.07 88 1009.2
20260506214825 32 313 0.0 1.0 0.00 0.35 0.07 88 1009.2
20260506214319 32 313 0.0 2.0 0.00 0.35 0.07 88 1009.2
20260506213849 32 313 0.0 2.0 0.00 0.35 0.07 88 1009.1
20260506213321 32 313 0.0 0.0 0.00 0.35 0.07 89 1009.1
20260506212834 32 313 0.0 0.0 0.00 0.35 0.07 89 1009.0
20260506212326 32 313 0.0 0.0 0.00 0.35 0.07 90 1009.0
20260506211857 32 313 0.0 2.0 0.00 0.35 0.07 90 1009.0
20260506211331 32 313 0.0 2.0 0.00 0.35 0.07 90 1009.0
20260506210839 32 313 0.0 2.0 0.00 0.35 0.07 90 1009.0
20260506210352 32 313 0.0 0.0 0.00 0.35 0.07 90 1009.0
20260506205820 32 313 0.0 0.0 0.00 0.35 0.07 90 1009.0
20260506205330 32 313 0.0 0.0 0.00 0.35 0.07 90 1009.0
20260506204839 33 313 0.0 0.0 0.00 0.35 0.07 89 1009.0
20260506204329 33 313 0.0 0.0 0.00 0.35 0.07 89 1009.0
20260506203821 33 313 0.0 3.0 0.00 0.35 0.07 88 1009.0
20260506203333 33 313 0.0 4.0 0.00 0.35 0.07 87 1009.0
20260506202846 33 312 2.0 4.0 0.00 0.35 0.07 86 1009.0
20260506202317 33 307 1.0 3.0 0.00 0.35 0.07 84 1009.0
20260506201851 33 307 1.0 5.0 0.00 0.35 0.07 84 1009.0
20260506201326 33 307 2.0 5.0 0.00 0.35 0.07 83 1008.9
20260506200819 34 313 2.0 4.0 0.00 0.35 0.07 83 1008.9
20260506200333 34 312 2.0 4.0 0.00 0.35 0.07 83 1008.9
20260506195823 34 332 1.0 3.0 0.00 0.35 0.07 82 1008.8
20260506195355 34 332 0.0 3.0 0.00 0.35 0.07 82 1008.8
20260506194827 34 332 1.0 3.0 0.00 0.35 0.07 81 1008.8
20260506194318 34 332 0.0 2.0 0.00 0.35 0.07 81 1008.8
20260506193830 34 332 1.0 2.0 0.00 0.35 0.07 81 1008.8
20260506193324 35 332 0.0 3.0 0.00 0.35 0.07 80 1008.7
20260506192856 35 332 0.0 3.0 0.00 0.35 0.07 80 1008.7
20260506192327 35 332 0.0 2.0 0.00 0.35 0.07 80 1008.7
20260506191818 35 332 0.0 3.0 0.00 0.35 0.07 80 1008.6
20260506191329 35 332 1.0 4.0 0.00 0.35 0.07 80 1008.7
20260506190819 35 330 1.0 4.0 0.00 0.35 0.07 79 1008.5
20260506190332 35 330 1.0 3.0 0.00 0.35 0.07 79 1008.5
20260506185822 36 330 1.0 3.0 0.00 0.35 0.07 79 1008.4
20260506185336 36 330 2.0 4.0 0.00 0.35 0.07 78 1008.4
20260506184832 36 328 1.0 6.0 0.00 0.35 0.07 78 1008.4
20260506184324 36 329 2.0 5.0 0.00 0.35 0.07 77 1008.3
20260506183856 37 330 2.0 8.0 0.00 0.35 0.07 76 1008.2
20260506183329 37 354 2.0 8.0 0.00 0.35 0.07 76 1008.2
20260506182819 37 349 2.0 9.0 0.00 0.35 0.07 76 1008.2
20260506182330 37 332 4.0 9.0 0.00 0.35 0.07 76 1008.1
20260506181823 37 337 3.0 6.0 0.00 0.35 0.07 77 1008.2
20260506181334 38 343 1.0 4.0 0.00 0.35 0.07 76 1008.2
20260506180827 38 345 2.0 4.0 0.00 0.35 0.07 77 1008.1
20260506180322 38 360 0.0 3.0 0.00 0.35 0.07 76 1008.1
20260506175833 38 360 0.0 5.0 0.00 0.35 0.07 76 1008.1
20260506175323 38 357 1.0 5.0 0.00 0.35 0.07 77 1008.0
20260506174816 38 339 2.0 5.0 0.00 0.35 0.07 76 1008.0
20260506174327 38 329 2.0 4.0 0.00 0.35 0.07 76 1008.0
20260506173840 38 323 1.0 6.0 0.00 0.35 0.07 76 1008.0
20260506173353 38 341 4.0 6.0 0.04 0.35 0.07 75 1008.0
20260506172825 38 358 2.0 8.0 0.04 0.35 0.07 75 1008.0
20260506172357 39 354 4.0 7.0 0.04 0.35 0.07 75 1007.9
20260506171827 39 353 4.0 7.0 0.04 0.35 0.07 76 1007.9
20260506171324 39 339 2.0 9.0 0.04 0.35 0.07 76 1007.8
20260506170835 39 308 2.0 9.0 0.04 0.35 0.07 76 1007.9
20260506170328 39 332 3.0 9.0 0.04 0.35 0.07 76 1007.8
20260506165816 39 330 3.0 9.0 0.04 0.35 0.07 75 1007.8
20260506165330 39 308 3.0 12.0 0.04 0.35 0.07 75 1007.8
20260506164844 40 23 6.0 12.0 0.04 0.35 0.07 74 1007.8
20260506164336 40 316 7.0 12.0 0.04 0.35 0.07 75 1007.7
20260506163847 40 319 6.0 13.0 0.04 0.35 0.07 75 1007.7
20260506163319 40 291 7.0 15.0 0.00 0.31 0.06 76 1007.7
20260506162853 40 326 6.0 13.0 0.00 0.31 0.06 78 1007.7
20260506162328 39 296 4.0 10.0 0.00 0.31 0.06 78 1007.6
20260506161818 39 281 4.0 10.0 0.00 0.31 0.06 77 1007.6
20260506161330 39 281 4.0 7.0 0.00 0.31 0.06 79 1007.6
20260506160823 38 297 4.0 8.0 0.00 0.31 0.06 81 1007.6
20260506160317 37 281 4.0 8.0 0.00 0.31 0.06 81 1007.6
20260506155828 37 261 4.0 11.0 0.00 0.31 0.06 78 1007.6
20260506155320 38 302 4.0 11.0 0.00 0.31 0.06 75 1007.5
20260506154815 39 281 4.0 8.0 0.00 0.31 0.06 74 1007.4
20260506154328 39 308 3.0 7.0 0.00 0.31 0.06 74 1007.4
20260506153840 39 341 3.0 7.0 0.00 0.31 0.06 73 1007.4
20260506153331 38 291 3.0 7.0 0.00 0.31 0.06 73 1007.4
20260506152823 39 231 2.0 7.0 0.00 0.31 0.06 71 1007.4
20260506152334 40 281 2.0 9.0 0.00 0.31 0.06 70 1007.4
20260506151827 40 275 3.0 9.0 0.00 0.31 0.06 67 1007.4
20260506151318 41 297 2.0 9.0 0.00 0.31 0.06 67 1007.4
20260506150831 42 296 4.0 9.0 0.00 0.31 0.06 64 1007.4
20260506150328 42 305 2.0 6.0 0.00 0.31 0.06 62 1007.3
20260506145816 43 314 2.0 9.0 0.00 0.31 0.06 60 1007.4
20260506145329 43 320 4.0 10.0 0.00 0.31 0.06 59 1007.3
20260506144820 44 332 5.0 10.0 0.00 0.31 0.06 60 1007.2
20260506144332 44 332 4.0 10.0 0.00 0.31 0.06 60 1007.2
20260506143821 45 349 2.0 8.0 0.00 0.31 0.06 60 1007.2
20260506143355 45 6 3.0 9.0 0.00 0.31 0.06 59 1007.3
20260506142825 45 268 5.0 11.0 0.00 0.31 0.06 58 1007.1
20260506142317 45 331 6.0 11.0 0.00 0.31 0.06 60 1007.1
20260506141835 44 334 3.0 11.0 0.00 0.31 0.06 62 1007.1
20260506141326 44 23 3.0 14.0 0.00 0.31 0.06 61 1007.1
20260506140835 44 342 3.0 14.0 0.00 0.31 0.06 59 1007.1
20260506140327 44 31 6.0 12.0 0.00 0.31 0.06 61 1007.1
20260506135817 44 341 5.0 12.0 0.00 0.31 0.06 60 1007.0
20260506135330 44 306 3.0 10.0 0.00 0.31 0.06 60 1007.0
20260506134818 43 286 3.0 11.0 0.00 0.31 0.06 60 1007.0
20260506134329 43 320 4.0 11.0 0.00 0.31 0.06 60 1006.9
20260506133842 43 312 3.0 9.0 0.00 0.31 0.06 60 1006.9
20260506133318 44 311 4.0 10.0 0.00 0.31 0.06 58 1007.0
20260506132850 45 309 5.0 11.0 0.00 0.31 0.06 56 1007.0
20260506132323 46 331 6.0 11.0 0.00 0.31 0.06 54 1006.9
20260506131835 47 341 5.0 12.0 0.00 0.31 0.06 52 1006.8
20260506131326 48 315 4.0 13.0 0.00 0.31 0.06 54 1006.8
20260506130816 47 326 6.0 13.0 0.00 0.31 0.06 55 1006.8
20260506130329 47 323 8.0 12.0 0.00 0.31 0.06 57 1006.8
20260506125818 46 336 6.0 12.0 0.00 0.31 0.06 58 1006.8
20260506125330 45 308 6.0 11.0 0.00 0.31 0.06 61 1006.8
20260506124821 45 338 4.0 12.0 0.00 0.31 0.06 60 1006.8
20260506124332 46 315 5.0 14.0 0.00 0.31 0.06 55 1006.8
20260506123824 47 327 7.0 14.0 0.00 0.31 0.06 56 1006.7
20260506123316 46 354 5.0 11.0 0.00 0.31 0.06 54 1006.7